CW6427 Weather Reports


Display with metric or nautical units.
time (UTC)temp
F
wind
direction
speed
MPH
gust
MPH
rain 1hr
in
rain 24hr
in
rain mn
in
humidity
%
barometer
mb
20260906223843 65 329 6.0 12.0 0.00 0.00 0.00 80 1019.9
20260906222842 66 331 5.0 8.0 0.00 0.00 0.00 79 1019.9
20260906221842 65 325 4.0 8.0 0.00 0.00 0.00 79 1019.8
20260906220842 65 307 4.0 8.0 0.00 0.00 0.00 78 1019.8
20260906215842 66 308 5.0 8.0 0.00 0.00 0.00 73 1019.7
20260906214842 68 336 3.0 9.0 0.00 0.00 0.00 71 1019.7
20260906212841 67 347 6.0 10.0 0.00 0.00 0.00 72 1019.7
20260906211841 67 326 6.0 8.0 0.00 0.00 0.00 72 1019.7
20260906204841 69 321 6.0 6.0 0.00 0.00 0.00 68 1019.6
20260906203841 69 350 6.0 13.0 0.00 0.01 0.00 65 1019.7
20260906202840 71 311 9.0 11.0 0.00 0.01 0.00 65 1019.6
20260906201840 70 346 9.0 13.0 0.00 0.01 0.00 63 1019.7
20260906200839 69 340 6.0 11.0 0.00 0.01 0.00 66 1019.6
20260906195840 69 351 9.0 13.0 0.00 0.01 0.00 64 1019.2
20260906194839 71 12 8.0 14.0 0.00 0.01 0.00 60 1019.3
20260906193839 71 344 3.0 12.0 0.00 0.01 0.00 64 1019.3
20260906192839 69 45 2.0 14.0 0.00 0.01 0.00 63 1019.2
20260906191839 71 348 8.0 9.0 0.00 0.01 0.00 63 1019.4
20260906190839 71 317 4.0 10.0 0.00 0.01 0.00 62 1019.4
20260906185838 70 360 3.0 12.0 0.00 0.01 0.00 62 1019.4
20260906184838 70 355 9.0 11.0 0.00 0.01 0.00 65 1019.5
20260906183838 70 15 7.0 13.0 0.00 0.01 0.00 65 1019.5
20260906182838 69 327 9.0 13.0 0.00 0.01 0.00 63 1019.5
20260906181838 69 329 5.0 11.0 0.00 0.01 0.00 66 1019.6
20260906180838 70 355 4.0 12.0 0.00 0.01 0.00 66 1019.5
20260906175838 70 19 9.0 13.0 0.00 0.01 0.00 65 1019.7
20260906171837 68 348 4.0 11.0 0.00 0.01 0.00 70 1020.0
20260906165836 68 44 4.0 11.0 0.00 0.01 0.00 70 1019.8
20260906164836 68 12 10.0 12.0 0.00 0.01 0.00 71 1020.0
20260906163836 68 347 6.0 14.0 0.00 0.01 0.00 71 1020.1
20260906162836 67 327 8.0 13.0 0.00 0.01 0.00 74 1020.2
20260906161836 67 327 6.0 12.0 0.00 0.01 0.00 76 1020.2
20260906155835 67 68 6.0 12.0 0.00 0.01 0.00 77 1020.2
20260906154835 65 329 9.0 15.0 0.00 0.01 0.00 74 1020.1
20260906152835 66 5 3.0 12.0 0.00 0.01 0.00 75 1020.1
20260906151835 66 344 2.0 11.0 0.00 0.01 0.00 76 1020.2
20260906150835 66 62 2.0 14.0 0.00 0.01 0.00 75 1020.2
20260906145834 66 340 10.0 14.0 0.00 0.01 0.00 75 1020.2
20260906143834 65 346 6.0 11.0 0.00 0.01 0.00 84 1019.9
20260906142834 64 348 3.0 10.0 0.00 0.01 0.00 85 1019.8
20260906141834 64 5 6.0 11.0 0.00 0.01 0.00 88 1019.7
20260906140903 63 291 4.0 12.0 0.00 0.01 0.00 89 1019.6
20260906135833 62 355 9.0 11.0 0.00 0.01 0.00 91 1019.6
20260906134833 61 5 6.0 10.0 0.00 0.01 0.00 94 1019.5
20260906131833 59 13 7.0 11.0 0.00 0.01 0.00 99 1019.3
20260906130832 59 341 6.0 11.0 0.00 0.01 0.00 100 1019.4
20260906125832 58 355 8.0 11.0 0.00 0.01 0.00 100 1019.3
20260906124832 58 9 8.0 12.0 0.00 0.01 0.00 100 1019.2
20260906121902 58 355 3.0 10.0 0.00 0.01 0.00 100 1019.1
20260906120901 58 5 3.0 10.0 0.00 0.01 0.00 100 1019.1
20260906115901 58 360 3.0 7.0 0.00 0.01 0.00 100 1019.1
20260906114901 58 336 4.0 8.0 0.00 0.01 0.00 100 1019.0
20260906113831 58 19 4.0 8.0 0.00 0.01 0.00 100 1018.7
20260906112901 58 13 2.0 3.0 0.00 0.01 0.00 100 1018.7
20260906111831 58 21 2.0 4.0 0.00 0.01 0.00 100 1018.7
20260906110900 58 13 1.0 3.0 0.00 0.01 0.00 100 1018.6
20260906105900 58 19 1.0 3.0 0.00 0.01 0.00 100 1018.5
20260906104900 58 19 1.0 4.0 0.00 0.01 0.00 100 1018.4
20260906103830 58 26 3.0 6.0 0.00 0.01 0.00 100 1018.2
20260906102900 58 360 3.0 9.0 0.00 0.01 0.00 100 1018.2
20260906100859 57 349 0.0 2.0 0.00 0.01 0.00 100 1017.9
20260906094859 57 349 0.0 1.0 0.00 0.01 0.00 100 1017.9
20260906093858 58 349 0.0 1.0 0.00 0.01 0.00 100 1017.7
20260906092858 58 349 0.0 1.0 0.00 0.01 0.00 100 1017.4
20260906091858 58 349 0.0 3.0 0.00 0.01 0.00 100 1017.3
20260906090858 59 360 1.0 7.0 0.00 0.01 0.00 100 1017.3
20260906085858 59 342 1.0 3.0 0.00 0.01 0.00 100 1017.2
20260906084858 59 214 0.0 1.0 0.00 0.01 0.00 100 1017.2
20260906083858 59 214 0.0 1.0 0.00 0.01 0.00 100 1017.1
20260906082857 59 214 1.0 1.0 0.00 0.01 0.00 100 1017.1
20260906081857 59 214 0.0 1.0 0.00 0.01 0.00 100 1017.0
20260906080857 58 214 0.0 1.0 0.00 0.01 0.00 100 1016.7
20260906075857 58 214 0.0 2.0 0.00 0.01 0.00 100 1016.9
20260906074857 59 214 0.0 1.0 0.00 0.01 0.00 99 1017.0
20260906064856 60 214 0.0 2.0 0.00 0.01 0.00 99 1016.8
20260906062855 59 146 1.0 2.0 0.00 0.01 0.00 100 1017.0
20260906055855 58 145 0.0 1.0 0.00 0.01 0.00 99 1016.9
20260906054855 58 146 0.0 2.0 0.00 0.01 0.00 98 1017.0
20260906053855 59 145 0.0 1.0 0.00 0.01 0.00 99 1017.2
20260906050854 59 79 1.0 2.0 0.00 0.01 0.00 99 1017.2
20260906045854 60 79 1.0 1.0 0.00 0.01 0.00 98 1017.2
20260906043854 60 79 0.0 2.0 0.00 0.01 0.00 98 1017.2
20260906041853 60 79 2.0 2.0 0.00 0.01 0.00 98 1017.3
20260906040853 60 79 0.0 2.0 0.00 0.01 0.00 98 1017.3
20260906035853 60 79 0.0 3.0 0.00 0.01 0.01 98 1017.0
20260906034853 61 24 1.0 7.0 0.00 0.01 0.01 98 1017.2
20260906033853 61 311 6.0 8.0 0.00 0.01 0.01 98 1017.1
20260906032853 61 315 4.0 4.0 0.00 0.01 0.01 98 1017.0
20260906031853 61 22 2.0 5.0 0.00 0.01 0.01 98 1017.0
20260906030852 60 345 3.0 5.0 0.00 0.01 0.01 98 1016.9
20260906023852 59 11 0.0 2.0 0.00 0.01 0.01 97 1016.9
20260906022852 60 11 1.0 3.0 0.00 0.01 0.01 98 1016.9
20260906021852 59 130 0.0 2.0 0.00 0.01 0.01 97 1016.8
20260906020851 60 130 0.0 1.0 0.00 0.01 0.01 97 1016.7
20260906015851 60 130 0.0 2.0 0.00 0.01 0.01 97 1016.6
20260906013851 60 130 3.0 3.0 0.00 0.01 0.01 95 1016.4
20260906012850 61 69 2.0 5.0 0.00 0.01 0.01 94 1016.5
20260906011851 62 317 5.0 7.0 0.00 0.01 0.01 94 1016.5
20260906010851 62 332 4.0 9.0 0.00 0.01 0.01 94 1016.5
20260906005850 63 334 3.0 11.0 0.00 0.01 0.01 94 1016.6
20260906004850 62 332 5.0 10.0 0.00 0.01 0.01 94 1016.6
20260906003850 62 360 3.0 8.0 0.00 0.01 0.01 95 1016.5
20260906002849 61 340 4.0 4.0 0.00 0.01 0.01 94 1016.2
20260906000849 62 310 0.0 2.0 0.00 0.01 0.01 92 1016.2
20260905235849 63 310 0.0 4.0 0.00 0.01 0.01 92 1016.0
20260905233849 63 304 1.0 4.0 0.00 0.01 0.01 91 1016.0
20260905231849 64 304 2.0 4.0 0.00 0.01 0.01 89 1016.2
20260905225848 65 308 3.0 8.0 0.00 0.01 0.01 88 1016.0
20260905224848 66 323 5.0 9.0 0.00 0.01 0.01 86 1016.2